| time (UTC) | temp F | wind direction | speed MPH | gust MPH | rain 1hr in | rain 24hr in | rain mn in | humidity % | barometer mb |
| 20260503211833 | 0 | 288 | 1.0 | 1.0 | 0.00 | 0.00 | 0.00 | 1015.4 | |
| 20260503211330 | 0 | 322 | 3.0 | 3.0 | 0.00 | 0.00 | 0.00 | 1015.6 | |
| 20260503210825 | 0 | 316 | 2.0 | 2.0 | 0.00 | 0.00 | 0.00 | 1015.8 | |
| 20260503210323 | 0 | 257 | 1.0 | 1.0 | 0.00 | 0.00 | 0.00 | 1015.7 | |
| 20260503205817 | 0 | 298 | 0.0 | 1.0 | 0.00 | 0.00 | 0.00 | 1015.7 | |
| 20260503205314 | 0 | 279 | 1.0 | 1.0 | 0.00 | 0.00 | 0.00 | 1016.1 | |
| 20260503204811 | 0 | 279 | 1.0 | 2.0 | 0.00 | 0.00 | 0.00 | 1015.8 | |
| 20260503204309 | 0 | 258 | 1.0 | 2.0 | 0.00 | 0.00 | 0.00 | 1016.3 | |
| 20260503203806 | 0 | 265 | 1.0 | 1.0 | 0.00 | 0.00 | 0.00 | 1016.4 | |
| 20260503203303 | 0 | 296 | 1.0 | 1.0 | 0.00 | 0.00 | 0.00 | 1016.5 | |
| 20260503202800 | 0 | 260 | 0.0 | 1.0 | 0.00 | 0.00 | 0.00 | 1016.2 | |
| 20260503202258 | 0 | 356 | 1.0 | 1.0 | 0.00 | 0.00 | 0.00 | 1016.3 | |
| 20260503201756 | 0 | 305 | 1.0 | 2.0 | 0.00 | 0.00 | 0.00 | 1016.6 | |
| 20260503201253 | 0 | 323 | 0.0 | 1.0 | 0.00 | 0.00 | 0.00 | 1016.7 | |
| 20260503200750 | 0 | 288 | 0.0 | 1.0 | 0.00 | 0.00 | 0.00 | 1016.7 | |
| 20260503200245 | 0 | 166 | 2.0 | 2.0 | 0.00 | 0.00 | 0.00 | 1017.0 | |
| 20260503195742 | 0 | 120 | 1.0 | 1.0 | 0.00 | 0.00 | 0.00 | 1016.7 | |
| 20260503195239 | 0 | 199 | 1.0 | 1.0 | 0.00 | 0.00 | 0.00 | 1017.0 | |
| 20260503194737 | 0 | 252 | 1.0 | 1.0 | 0.00 | 0.00 | 0.00 | 1017.1 | |
| 20260503194232 | 0 | 312 | 0.0 | 1.0 | 0.00 | 0.00 | 0.00 | 1016.9 | |
| 20260503193728 | 0 | 291 | 0.0 | 0.0 | 0.00 | 0.00 | 0.00 | 1017.3 | |
| 20260503193225 | 0 | 338 | 0.0 | 0.0 | 0.00 | 0.00 | 0.00 | 1017.2 | |
| 20260503192721 | 0 | 321 | 3.0 | 3.0 | 0.00 | 0.00 | 0.00 | 1017.3 | |
| 20260503192216 | 0 | 273 | 0.0 | 1.0 | 0.00 | 0.00 | 0.00 | 1017.4 | |
| 20260503191713 | 0 | 281 | 1.0 | 2.0 | 0.00 | 0.00 | 0.00 | 1017.5 | |
| 20260503191210 | 0 | 295 | 2.0 | 2.0 | 0.00 | 0.00 | 0.00 | 1017.6 | |
| 20260503190707 | 0 | 297 | 0.0 | 0.0 | 0.00 | 0.00 | 0.00 | 1017.5 | |
| 20260503190203 | 0 | 116 | 1.0 | 2.0 | 0.00 | 0.00 | 0.00 | 1017.6 | |
| 20260503185701 | 0 | 236 | 0.0 | 1.0 | 0.00 | 0.00 | 0.00 | 1017.5 | |
| 20260503185156 | 0 | 255 | 0.0 | 1.0 | 0.00 | 0.00 | 0.00 | 1017.8 | |
| 20260503184651 | 0 | 263 | 1.0 | 2.0 | 0.00 | 0.00 | 0.00 | 1017.7 | |
| 20260503184148 | 0 | 274 | 4.0 | 5.0 | 0.00 | 0.00 | 0.00 | 1017.7 | |
| 20260503183644 | 0 | 256 | 0.0 | 0.0 | 0.00 | 0.00 | 0.00 | 1017.7 | |
| 20260503183142 | 0 | 0 | 0.0 | 0.0 | 0.00 | 0.00 | 0.00 | 1017.9 | |
| 20260503182639 | 0 | 268 | 2.0 | 3.0 | 0.00 | 0.00 | 0.00 | 1017.8 | |
| 20260503182138 | 0 | 274 | 0.0 | 0.0 | 0.00 | 0.00 | 0.00 | 1017.9 | |
| 20260503181635 | 0 | 242 | 0.0 | 0.0 | 0.00 | 0.00 | 0.00 | 1018.0 | |
| 20260503181131 | 0 | 359 | 2.0 | 2.0 | 0.00 | 0.00 | 0.00 | 1018.2 | |
| 20260503180628 | 0 | 206 | 0.0 | 0.0 | 0.00 | 0.00 | 0.00 | 1018.2 | |
| 20260503180126 | 0 | 266 | 1.0 | 1.0 | 0.00 | 0.00 | 0.00 | 1018.3 | |
| 20260503175622 | 0 | 307 | 3.0 | 3.0 | 0.00 | 0.00 | 0.00 | 1018.3 | |
| 20260503175119 | 0 | 276 | 0.0 | 1.0 | 0.00 | 0.00 | 0.00 | 1018.2 | |
| 20260503174616 | 0 | 277 | 0.0 | 0.0 | 0.00 | 0.00 | 0.00 | 1018.3 | |
| 20260503174114 | 0 | 15 | 1.0 | 1.0 | 0.00 | 0.00 | 0.00 | 1018.4 | |
| 20260503173608 | 0 | 321 | 3.0 | 6.0 | 0.00 | 0.00 | 0.00 | 1018.6 | |
| 20260503173105 | 0 | 130 | 1.0 | 1.0 | 0.00 | 0.00 | 0.00 | 1018.6 | |
| 20260503172602 | 0 | 124 | 1.0 | 2.0 | 0.00 | 0.00 | 0.00 | 1018.7 | |
| 20260503172059 | 0 | 275 | 0.0 | 0.0 | 0.00 | 0.00 | 0.00 | 1018.7 | |
| 20260503171555 | 0 | 295 | 0.0 | 0.0 | 0.00 | 0.00 | 0.00 | 1018.6 | |
| 20260503171053 | 0 | 292 | 1.0 | 2.0 | 0.00 | 0.00 | 0.00 | 1018.9 | |
| 20260503170549 | 0 | 83 | 1.0 | 1.0 | 0.00 | 0.00 | 0.00 | 1018.6 | |
| 20260503150942 | 0 | 17 | 1.0 | 2.0 | 0.00 | 0.00 | 0.00 | 1019.9 | |
| 20260503150439 | 0 | 61 | 0.0 | 1.0 | 0.00 | 0.00 | 0.00 | 1019.9 | |
| 20260503131331 | 0 | 336 | 0.0 | 1.0 | 0.00 | 0.00 | 0.00 | 1019.7 | |
| 20260503130829 | 0 | 322 | 0.0 | 1.0 | 0.00 | 0.00 | 0.00 | 1019.9 | |
| 20260503130326 | 0 | 253 | 0.0 | 0.0 | 0.00 | 0.00 | 0.00 | 1019.8 | |
| 20260503110714 | 0 | 315 | 0.0 | 0.0 | 0.00 | 0.00 | 0.00 | 1018.6 | |
| 20260503110206 | 0 | 327 | 0.0 | 0.0 | 0.00 | 0.00 | 0.00 | 1018.3 | |
| 20260503100132 | 0 | 297 | 0.0 | 0.0 | 0.00 | 0.00 | 0.00 | 1017.8 | |
| 20260503081516 | 0 | 304 | 0.0 | 0.0 | 0.00 | 0.00 | 0.00 | 1017.5 | |
| 20260503081013 | 0 | 282 | 0.0 | 1.0 | 0.00 | 0.00 | 0.00 | 1017.4 | |
| 20260503080509 | 0 | 321 | 0.0 | 0.0 | 0.00 | 0.00 | 0.00 | 1017.1 | |
| 20260503072442 | 0 | 325 | 0.0 | 1.0 | 0.00 | 0.00 | 0.00 | 1016.7 | |
| 20260503071939 | 0 | 324 | 0.0 | 0.0 | 0.00 | 0.00 | 0.00 | 1016.8 | |
| 20260503071431 | 0 | 331 | 0.0 | 0.0 | 0.00 | 0.00 | 0.00 | 1016.8 | |
| 20260503070927 | 0 | 302 | 0.0 | 0.0 | 0.00 | 0.00 | 0.00 | 1016.9 | |
| 20260503070424 | 0 | 292 | 0.0 | 0.0 | 0.00 | 0.00 | 0.00 | 1017.1 | |
| 20260503054838 | 0 | 288 | 0.0 | 0.0 | 0.00 | 0.00 | 0.00 | 1016.5 | |
| 20260503054334 | 0 | 342 | 0.0 | 0.0 | 0.00 | 0.00 | 0.00 | 1016.3 | |
| 20260503053832 | 0 | 335 | 0.0 | 0.0 | 0.00 | 0.00 | 0.00 | 1016.4 | |
| 20260503053330 | 0 | 341 | 1.0 | 1.0 | 0.00 | 0.00 | 0.00 | 1016.5 | |
| 20260503052826 | 0 | 314 | 1.0 | 2.0 | 0.00 | 0.00 | 0.00 | 1016.5 | |
| 20260503052323 | 0 | 355 | 1.0 | 1.0 | 0.00 | 0.00 | 0.00 | 1016.5 | |
| 20260503051819 | 0 | 346 | 1.0 | 1.0 | 0.00 | 0.00 | 0.00 | 1016.2 | |
| 20260503051316 | 0 | 355 | 1.0 | 1.0 | 0.00 | 0.00 | 0.00 | 1016.5 | |
| 20260503050812 | 0 | 346 | 0.0 | 1.0 | 0.00 | 0.00 | 0.00 | 1016.1 | |
| 20260503050309 | 0 | 308 | 0.0 | 0.0 | 0.00 | 0.00 | 0.00 | 1016.4 | |
| 20260503045807 | 0 | 315 | 0.0 | 1.0 | 0.00 | 0.00 | 0.00 | 1016.3 | |
| 20260503045305 | 0 | 297 | 0.0 | 0.0 | 0.00 | 0.00 | 0.00 | 1016.3 | |
| 20260503044800 | 0 | 287 | 0.0 | 0.0 | 0.00 | 0.00 | 0.00 | 1016.5 | |
| 20260503044257 | 0 | 300 | 0.0 | 1.0 | 0.00 | 0.00 | 0.00 | 1016.5 | |
| 20260503043754 | 0 | 306 | 0.0 | 0.0 | 0.00 | 0.00 | 0.00 | 1016.3 | |
| 20260503043251 | 0 | 300 | 0.0 | 0.0 | 0.00 | 0.00 | 0.00 | 1016.4 | |
| 20260503042747 | 0 | 353 | 1.0 | 1.0 | 0.00 | 0.00 | 0.00 | 1016.1 | |
| 20260503042244 | 0 | 1 | 1.0 | 1.0 | 0.00 | 0.00 | 0.00 | 1016.1 | |
| 20260503041740 | 0 | 301 | 0.0 | 0.0 | 0.00 | 0.00 | 0.00 | 1016.1 | |
| 20260503041238 | 0 | 305 | 1.0 | 1.0 | 0.00 | 0.00 | 0.00 | 1016.2 | |
| 20260503040735 | 0 | 338 | 0.0 | 0.0 | 0.00 | 0.00 | 0.00 | 1016.1 | |
| 20260503040233 | 0 | 23 | 1.0 | 1.0 | 0.00 | 0.00 | 0.00 | 1016.0 | |
| 20260503035729 | 0 | 358 | 1.0 | 1.0 | 0.00 | 0.00 | 0.00 | 1016.2 | |
| 20260503035227 | 0 | 318 | 0.0 | 0.0 | 0.00 | 0.00 | 0.00 | 1016.0 | |
| 20260503034724 | 0 | 294 | 2.0 | 2.0 | 0.00 | 0.00 | 0.00 | 1016.1 | |
| 20260503034221 | 0 | 338 | 0.0 | 1.0 | 0.00 | 0.00 | 0.00 | 1016.1 | |
| 20260503033718 | 0 | 347 | 2.0 | 2.0 | 0.00 | 0.00 | 0.00 | 1015.7 | |
| 20260503033215 | 0 | 352 | 2.0 | 2.0 | 0.00 | 0.00 | 0.00 | 1015.8 | |
| 20260503032713 | 0 | 342 | 1.0 | 1.0 | 0.00 | 0.00 | 0.00 | 1015.7 | |
| 20260503032212 | 0 | 4 | 3.0 | 3.0 | 0.00 | 0.00 | 0.00 | 1015.8 | |
| 20260503031708 | 0 | 322 | 0.0 | 1.0 | 0.00 | 0.00 | 0.00 | 1016.0 | |
| 20260503031207 | 0 | 327 | 2.0 | 3.0 | 0.00 | 0.00 | 0.00 | 1016.0 | |
| 20260503030702 | 0 | 324 | 2.0 | 2.0 | 0.00 | 0.00 | 0.00 | 1016.2 | |
| 20260503030159 | 0 | 282 | 1.0 | 2.0 | 0.00 | 0.00 | 0.00 | 1015.8 | |
| 20260503025656 | 0 | 322 | 1.0 | 1.0 | 0.00 | 0.00 | 0.00 | 1015.7 | |
| 20260503025154 | 0 | 306 | 1.0 | 1.0 | 0.00 | 0.00 | 0.00 | 1015.8 | |
| 20260503024650 | 0 | 0 | 1.0 | 1.0 | 0.00 | 0.00 | 0.00 | 1015.6 | |
| 20260503024147 | 0 | 15 | 2.0 | 2.0 | 0.00 | 0.00 | 0.00 | 1015.6 | |
| 20260503023644 | 0 | 11 | 2.0 | 2.0 | 0.00 | 0.00 | 0.00 | 1015.6 | |
| 20260503023141 | 0 | 18 | 3.0 | 3.0 | 0.00 | 0.00 | 0.00 | 1015.4 | |
| 20260503022638 | 0 | 16 | 2.0 | 2.0 | 0.00 | 0.00 | 0.00 | 1015.7 | |
| 20260503022137 | 0 | 270 | 2.0 | 3.0 | 0.00 | 0.00 | 0.00 | 1015.6 | |
| 20260503021634 | 0 | 3 | 3.0 | 3.0 | 0.00 | 0.00 | 0.00 | 1015.5 | |
| 20260503021131 | 0 | 322 | 1.0 | 1.0 | 0.00 | 0.00 | 0.00 | 1015.4 | |
| 20260503020628 | 0 | 17 | 2.0 | 2.0 | 0.00 | 0.00 | 0.00 | 1015.5 | |
| 20260503020126 | 0 | 334 | 2.0 | 2.0 | 0.00 | 0.00 | 0.00 | 1015.2 | |
| 20260503015622 | 0 | 322 | 1.0 | 1.0 | 0.00 | 0.00 | 0.00 | 1015.1 | |
| 20260503015119 | 0 | 332 | 2.0 | 2.0 | 0.00 | 0.00 | 0.00 | 1015.1 | |
| 20260503014615 | 0 | 314 | 1.0 | 1.0 | 0.00 | 0.00 | 0.00 | 1015.2 | |
| 20260503014113 | 0 | 13 | 3.0 | 5.0 | 0.00 | 0.00 | 0.00 | 1015.2 | |
| 20260503013610 | 0 | 0 | 1.0 | 2.0 | 0.00 | 0.00 | 0.00 | 1015.1 | |
| 20260503013108 | 0 | 319 | 0.0 | 0.0 | 0.00 | 0.00 | 0.00 | 1015.0 | |
| 20260503012605 | 0 | 345 | 1.0 | 1.0 | 0.00 | 0.00 | 0.00 | 1014.7 | |
| 20260503012102 | 0 | 334 | 0.0 | 1.0 | 0.00 | 0.00 | 0.00 | 1014.7 | |
| 20260503011558 | 0 | 289 | 0.0 | 1.0 | 0.00 | 0.00 | 0.00 | 1014.7 | |
| 20260503011055 | 0 | 345 | 1.0 | 2.0 | 0.00 | 0.00 | 0.00 | 1014.8 | |
| 20260503010551 | 0 | 292 | 1.0 | 1.0 | 0.00 | 0.00 | 0.00 | 1014.5 | |
| 20260503010049 | 0 | 310 | 1.0 | 1.0 | 0.00 | 0.00 | 0.00 | 1014.4 | |
| 20260503005546 | 0 | 280 | 0.0 | 0.0 | 0.00 | 0.00 | 0.00 | 1014.4 | |
| 20260503005043 | 0 | 331 | 0.0 | 1.0 | 0.00 | 0.00 | 0.00 | 1014.4 | |
| 20260503004539 | 0 | 300 | 0.0 | 0.0 | 0.00 | 0.00 | 0.00 | 1014.4 | |
| 20260503004038 | 0 | 301 | 0.0 | 0.0 | 0.00 | 0.00 | 0.00 | 1014.2 | |
| 20260503003534 | 0 | 0 | 2.0 | 3.0 | 0.00 | 0.00 | 0.00 | 1013.9 | |
| 20260503003031 | 0 | 288 | 1.0 | 1.0 | 0.00 | 0.00 | 0.00 | 1014.2 | |
| 20260503002528 | 0 | 317 | 1.0 | 1.0 | 0.00 | 0.00 | 0.00 | 1013.8 | |
| 20260503002025 | 0 | 299 | 0.0 | 0.0 | 0.00 | 0.00 | 0.00 | 1014.1 | |
| 20260503001521 | 0 | 299 | 1.0 | 2.0 | 0.00 | 0.00 | 0.00 | 1013.7 | |
| 20260503001019 | 0 | 304 | 1.0 | 1.0 | 0.00 | 0.00 | 0.00 | 1013.7 | |
| 20260503000516 | 0 | 22 | 2.0 | 2.0 | 0.00 | 0.00 | 0.00 | 1013.8 | |
| 20260503000013 | 0 | 317 | 0.0 | 0.0 | 0.00 | 0.00 | 0.00 | 1013.6 | |
| 20260502235509 | 0 | 308 | 0.0 | 0.0 | 0.00 | 0.00 | 0.00 | 1013.7 | |
| 20260502235007 | 0 | 12 | 3.0 | 3.0 | 0.00 | 0.00 | 0.00 | 1013.7 | |
| 20260502234503 | 0 | 322 | 1.0 | 1.0 | 0.00 | 0.00 | 0.00 | 1013.5 | |
| 20260502234001 | 0 | 357 | 1.0 | 1.0 | 0.00 | 0.00 | 0.00 | 1013.5 | |
| 20260502233501 | 0 | 61 | 2.0 | 2.0 | 0.00 | 0.00 | 0.00 | 1013.6 | |
| 20260502232958 | 0 | 2 | 0.0 | 1.0 | 0.00 | 0.00 | 0.00 | 1013.5 | |
| 20260502232455 | 0 | 318 | 3.0 | 3.0 | 0.00 | 0.00 | 0.00 | 1013.7 | |
| 20260502231951 | 0 | 357 | 2.0 | 2.0 | 0.00 | 0.00 | 0.00 | 1013.3 | |
| 20260502231449 | 0 | 9 | 1.0 | 1.0 | 0.00 | 0.00 | 0.00 | 1013.4 | |
| 20260502230947 | 0 | 322 | 1.0 | 2.0 | 0.00 | 0.00 | 0.00 | 1013.4 | |
| 20260502230444 | 0 | 83 | 1.0 | 1.0 | 0.00 | 0.00 | 0.00 | 1013.3 | |
| 20260502225942 | 0 | 289 | 1.0 | 2.0 | 0.00 | 0.00 | 0.00 | 1013.1 | |
| 20260502225438 | 0 | 336 | 2.0 | 2.0 | 0.00 | 0.00 | 0.00 | 1013.3 | |
| 20260502224935 | 0 | 347 | 2.0 | 3.0 | 0.00 | 0.00 | 0.00 | 1013.3 | |
| 20260502224431 | 0 | 8 | 2.0 | 3.0 | 0.00 | 0.00 | 0.00 | 1013.3 | |
| 20260502223928 | 0 | 333 | 1.0 | 2.0 | 0.00 | 0.00 | 0.00 | 1013.5 | |
| 20260502223426 | 0 | 12 | 3.0 | 3.0 | 0.00 | 0.00 | 0.00 | 1013.3 | |
| 20260502222924 | 0 | 345 | 4.0 | 5.0 | 0.00 | 0.00 | 0.00 | 1013.2 | |
| 20260502222421 | 0 | 317 | 1.0 | 2.0 | 0.00 | 0.00 | 0.00 | 1013.1 | |
| 20260502221921 | 0 | 302 | 0.0 | 0.0 | 0.00 | 0.00 | 0.00 | 1013.2 | |
| 20260502221419 | 0 | 316 | 1.0 | 1.0 | 0.00 | 0.00 | 0.00 | 1013.3 | |
| 20260502220916 | 0 | 303 | 1.0 | 1.0 | 0.00 | 0.00 | 0.00 | 1013.0 | |
| 20260502220411 | 0 | 333 | 3.0 | 3.0 | 0.00 | 0.00 | 0.00 | 1013.0 | |
| 20260502215908 | 0 | 21 | 3.0 | 6.0 | 0.00 | 0.00 | 0.00 | 1012.9 | |
| 20260502215406 | 0 | 67 | 2.0 | 3.0 | 0.00 | 0.00 | 0.00 | 1012.8 | |
| 20260502214902 | 0 | 27 | 1.0 | 1.0 | 0.00 | 0.00 | 0.00 | 1012.8 | |
| 20260502214359 | 0 | 330 | 2.0 | 3.0 | 0.00 | 0.00 | 0.00 | 1012.4 | |
| 20260502213856 | 0 | 29 | 2.0 | 5.0 | 0.00 | 0.00 | 0.00 | 1012.6 | |
| 20260502213353 | 0 | 302 | 0.0 | 0.0 | 0.00 | 0.00 | 0.00 | 1012.5 | |
| 20260502212852 | 0 | 9 | 1.0 | 2.0 | 0.00 | 0.00 | 0.00 | 1012.6 | |
| 20260502212350 | 0 | 45 | 1.0 | 2.0 | 0.00 | 0.00 | 0.00 | 1012.5 |